Regional Weather Roundup
Issued by NWS

Home | Current Version | Previous Version | Graphics & Text | Print | Product List | Glossary Off
Versions: 1 2 3 4 5 6 7 8 9 10 11 12 13 14 15 16 17 18 19 20 21 22 23 24 25 26 27 28 29 30 31 32 33 34 35 36 37 38 39 40 41 42 43 44 45 46 47 48 49 50

000
ASUS44 KMEG 261610
RWRTN
TENNESSEE HOURLY STATE WEATHER ROUNDUP
NATIONAL WEATHER SERVICE MEMPHIS TN
1000 AM CST MON JAN 26 2015

TNZ002-004-019-021-049-052-054-088>092-261700-
WEST TENNESSEE

CITY           SKY/WX    TMP DP  RH WIND       PRES   REMARKS
MEMPHIS INTL   PTSUNNY   41  29  62 W8        30.12R
NWS MEMPHIS      N/A     40 N/A N/A MISG        N/A
JACKSON        CLOUDY    37  27  67 NW10      30.09S WCI  30
DYERSBURG      PTSUNNY   36  19  51 NW10      30.12S WCI  28
UNION CITY     PTSUNNY   32  27  80 NW12      30.08R WCI  23
PARIS          CLOUDY    28  25  86 NW10      30.07R WCI  19
LEXINGTON      CLOUDY    34  27  75 W8        30.04S WCI  27
SAVANNAH       CLOUDY    36  27  69 NW7       30.07F WCI  30
$$

TNZ008-025-027-028-033-062-065-066-261700-
NORTH MIDDLE TENNESSEE

CITY           SKY/WX    TMP DP  RH WIND       PRES   REMARKS
NASHVILLE      CLOUDY    33  28  81 NW13G21   30.03R WCI  24
CLARKSVILLE    CLOUDY    33  28  81 NW10      30.03R WCI  25
SMYRNA         CLOUDY    33  29  86 NW13      30.03R WCI  24
COOKEVILLE     CLOUDY    30  28  93 N9        29.94R WCI  22
CROSSVILLE     CLOUDY    29  26  89 NW12G20   29.87R WCI  19
$$

TNZ061-075-076-078-094-096-097-261700-
SOUTH MIDDLE TENNESSEE

CITY           SKY/WX    TMP DP  RH WIND       PRES   REMARKS
FAYETTEVILLE   CLOUDY    32  28  86 MISG      29.98R
TULLAHOMA      CLOUDY    30  28  93 NW13      29.97R WCI  20
WINCHESTER     CLOUDY    32  28  86 NW8       29.97R WCI  25
MCMINNVILLE    CLOUDY    30  30 100 NW9       29.95R WCI  22
COLUMBIA       CLOUDY    34  34 100 VRB5      30.01R WCI  30
SHELBYVILLE    CLOUDY    34  30  86 NW14      30.01R WCI  24
$$

TNZ017-018-042-046-047-261700-
NORTHEAST TENNESSEE

CITY           SKY/WX    TMP DP  RH WIND       PRES   REMARKS
TRI CITIES     CLOUDY    40  37  89 W9        29.73R WCI  34
ELIZABETHTON   LGT RAIN  36  36 100 SW7       29.72R FOG     WCI  30
$$

TNZ012-013-036-069-073-074-261700-
CENTRAL EAST TENNESSEE

CITY           SKY/WX    TMP DP  RH WIND       PRES   REMARKS
KNOXVILLE      CLOUDY    37  30  75 W12       29.85R WCI  29
OAK RIDGE      CLOUDY    38  30  73 W5        29.86R WCI  34
GATLINBURG     CLOUDY    36  30  80 NW16      29.82R WCI  26
MORRISTOWN     PTSUNNY   36  30  80 NW16      29.80R WCI  26
$$

TNZ083-085-099-261700-
SOUTHEAST TENNESSEE

CITY           SKY/WX    TMP DP  RH WIND       PRES   REMARKS
CHATTANOOGA    CLOUDY    37  30  75 W16G22    29.93R WCI  28
$$

SKY/WX REPORTED AS FAIR MEANS FEW OR NO CLOUDS BELOW
12 THOUSAND FEET.



USA.gov is the U.S. government's official web portal to all federal, state and local government web resources and services.